Location: Grand Mazuras
(45.9128°N, 1.7636°E)
Time: 03:05:31
(UTC+00:00)

Cosmos 1818 - Pass Details

Date: 18 April 2021
Orbit: 772 x 802 km, 65.0° (Epoch: 10 May)

Event Time Altitude Azimuth Distance (km) Brightness Sun altitude
Rises 20:46:08 0° 224° (SW) 3,272 6.8 -19.3°
Reaches altitude 10° 20:48:33 10° 227° (SW) 2,351 6.1 -19.7°
Maximum altitude 20:53:56 64° 309° (NW) 880 4.0 -20.3°
Drops below altitude 10° 20:59:23 10° 31° (NNE) 2,381 6.2 -21.0°
Sets 21:01:51 0° 35° (NE) 3,317 6.9 -21.3°
